{"data":{"norad_id":66294,"epoch":"2026-05-24T23:53:31.410816Z","epoch_age_seconds":72681,"freshness":"FRESH","line1":"1 66294U 25248B   26144.99550244  .00002847  00000+0  13962-3 0  9997","line2":"2 66294  45.3988 245.8650 0004265 293.5102  66.5336 15.20751304 30982","mean_motion":15.20751304,"eccentricity":0.0004265,"inclination_deg":45.3988,"raan_deg":245.865,"arg_perigee_deg":293.5102,"mean_anomaly_deg":66.5336,"bstar":0.00013962,"rev_number":3098,"period_min":94.690038812553,"perigee_km":500.63809483615,"apogee_km":506.50819358917,"semimajor_km":6881.7101442127,"source":"CELESTRAK","updated_at":"2026-05-25T13:38:06.104287Z"}}